STARLINK-5293, 55295

Orbit data source: Space-Track

STARLINK-5293, 55295 is a payload satellite owned by SpaceX/Seattle (US) in LEO that was launched on Thu, 19 Jan 2023 UTC via an FALCON 9 launch vehicle from the Air Force Western Test Range (AFWTR). Payload-class satellites include a variety of spacecraft equipped with specific instruments for various scientific and technological missions. These include communications satellites like Starlink; space stations such as the ISS; scientific satellites like the Hubble; Earth observation satellites from companies like Planet Labs, Umbra, and HawkEye 360; GPS; miniature CubeSats for education and research; and military/defense satellites.

Loading next visibility...
Identifier
55295, 2023-010AC
Orbit
LEO
Country
Flag of USUS
Related business
Manufacturer
SpaceX/Seattle
Mission
Operational Commercial Communications
Bus & Motor
STARLINK, Unknown motor
Mass
305 kg wet, ~290 kg dry
Launch date (UTC)
2023-01-19 (3 years ago)
Launch vehicle
FALCON 9
Launch site
Air Force Western Test Range (AFWTR)
Object type
Payload
Rocket body
Debris
Shape & HBR
Box + 1 Pan, 10.1 m
Radar Cross Section
13.562 m², Large (>1 m²)

Expand to show TLE details & history
Last TLE update: 2 days ago

TLE from 2 days ago
0 STARLINK-5293
1 55295U 23010AC  26171.37329889  .00000002  00000-0  79751-5 0  9994
2 55295  69.9991 145.6843 0003893 265.2554  94.8160 14.98330560188165
Epoch: 2026-06-20T08:57Z
TLE epoch observation values (Epoch: 2026-06-20T08:57:33.024Z)
Latitude
-0.00005°
Longitude
102.70783°
Altitude
574.706 km
Speed
7.574 km/s
True Right ascension
09h 42m 44s
True Declination
0° 00' 00"
Sunlit
Object was in daylight at epoch
Visualization orbit readout
Latitude
Unknown
Longitude
Unknown
Altitude
Unknown
Speed
Unknown
Apparent Right ascension
Unknown
Apparent Declination
Unknown
Sunlit
N/A
Visualization observer readout
Local Sidereal Time
21:30:07
Azimuth
Unknown
Elevation
Unknown
Doppler factor
Unknown
Orbital elements
Apogee altitude
572.707 km
Perigee altitude
567.298 km
Semi-major axis
6,948.139 km
Eccentricity
0.00039
Inclination
69.9991°
RAAN
145.6843°
Arg. of periapsis
265.2554°
True anomaly
94.86045°
Mean anomaly
94.816°
Eccentric anomaly
94.83823°
Mean motion
3.74749 °/min
Orbital period
96.06 mins
BSTAR
0.0000079751
Loading maneuver chart data...
Computing Atmospheric mass density...
Loading historical data...
Loading historical data...
Loading historical data...
Loading historical data...
Loading historical data...
Loading historical data...
Loading historical data...

Documentation

Showing up to 5 results
|